EW9362 Weather Reports


Display with metric or nautical units.
time (UTC)temp
F
wind
direction
speed
MPH
gust
MPH
rain 1hr
in
rain 24hr
in
rain mn
in
humidity
%
barometer
mb
20240225210531 61 224 3.0 13.0 0.00 0.00 0.00 34 1010.2
20240225210504 61 244 4.0 9.0 0.00 0.00 0.00 35 1010.0
20240225210031 61 129 2.0 13.0 0.00 0.00 0.00 35 1010.1
20240225205535 60 268 6.0 13.0 0.00 0.00 0.00 35 1010.0
20240225205505 61 216 5.0 15.0 0.00 0.00 0.00 36 1010.0
20240225205033 61 193 3.0 13.0 0.00 0.00 0.00 36 1010.2
20240225204541 60 254 5.0 13.0 0.00 0.00 0.00 35 1010.2
20240225204503 60 245 6.0 14.0 0.00 0.00 0.00 36 1010.0
20240225204031 59 279 6.0 13.0 0.00 0.00 0.00 36 1010.3
20240225204005 60 234 5.0 14.0 0.00 0.00 0.00 37 1010.0
20240225203530 59 291 5.0 14.0 0.00 0.00 0.00 36 1010.1
20240225203505 60 223 5.0 13.0 0.00 0.00 0.00 36 1009.8
20240225203038 59 195 5.0 14.0 0.00 0.00 0.00 37 1010.1
20240225202531 59 316 3.0 15.0 0.00 0.00 0.00 37 1010.1
20240225202503 59 206 6.0 15.0 0.00 0.00 0.00 38 1010.0
20240225202033 58 290 8.0 15.0 0.00 0.00 0.00 37 1010.2
20240225202004 59 216 7.0 15.0 0.00 0.00 0.00 38 1010.1
20240225201549 58 240 4.0 17.0 0.00 0.00 0.00 37 1010.4
20240225201030 58 206 7.0 17.0 0.00 0.00 0.00 37 1010.6
20240225201005 58 227 7.0 18.0 0.00 0.00 0.00 38 1010.4
20240225200530 58 162 7.0 17.0 0.00 0.00 0.00 38 1010.6
20240225200505 59 226 7.0 17.0 0.00 0.00 0.00 39 1010.6
20240225200037 58 259 3.0 16.0 0.00 0.00 0.00 38 1010.9
20240225200004 58 192 6.0 15.0 0.00 0.00 0.00 39 1010.6
20240225195530 57 207 7.0 16.0 0.00 0.00 0.00 39 1011.0
20240225195505 57 193 6.0 17.0 0.00 0.00 0.00 40 1010.6
20240225195028 56 190 6.0 20.0 0.00 0.00 0.00 39 1011.0
20240225195004 57 213 6.0 17.0 0.00 0.00 0.00 39 1010.7
20240225194544 56 223 5.0 20.0 0.00 0.00 0.00 40 1011.1
20240225194504 57 214 6.0 20.0 0.00 0.00 0.00 40 1010.8
20240225194029 55 196 8.0 20.0 0.00 0.00 0.00 40 1011.1
20240225194005 56 206 6.0 20.0 0.00 0.00 0.00 41 1011.0
20240225193528 56 188 5.0 15.0 0.00 0.00 0.00 41 1011.3
20240225193505 56 193 6.0 15.0 0.00 0.00 0.00 41 1011.2
20240225193031 55 194 7.0 15.0 0.00 0.00 0.00 42 1011.4
20240225193004 55 192 6.0 15.0 0.00 0.00 0.00 42 1011.2
20240225192528 55 211 6.0 12.0 0.00 0.00 0.00 41 1011.5
20240225192028 55 205 6.0 12.0 0.00 0.00 0.00 41 1011.8
20240225192004 55 201 4.0 13.0 0.00 0.00 0.00 42 1011.7
20240225191543 55 181 4.0 12.0 0.00 0.00 0.00 42 1011.8
20240225191505 55 202 3.0 13.0 0.00 0.00 0.00 42 1011.8
20240225191029 54 179 4.0 10.0 0.00 0.00 0.00 42 1012.0
20240225190534 54 250 2.0 7.0 0.00 0.00 0.00 43 1012.2
20240225190506 54 207 2.0 7.0 0.00 0.00 0.00 45 1012.2
20240225190036 53 262 2.0 7.0 0.00 0.00 0.00 44 1012.4
20240225190006 54 246 3.0 8.0 0.00 0.00 0.00 44 1012.4
20240225185527 53 228 2.0 9.0 0.00 0.00 0.00 45 1012.7
20240225185506 53 243 3.0 8.0 0.00 0.00 0.00 45 1012.5
20240225185027 53 283 2.0 9.0 0.00 0.00 0.00 44 1012.8
20240225185004 54 217 3.0 9.0 0.00 0.00 0.00 45 1012.6
20240225184536 53 132 5.0 9.0 0.00 0.00 0.00 44 1013.0
20240225184031 53 229 2.0 12.0 0.00 0.00 0.00 43 1013.2
20240225184006 54 218 4.0 12.0 0.00 0.00 0.00 44 1012.9
20240225183530 53 248 2.0 12.0 0.00 0.00 0.00 43 1013.3
20240225183034 53 206 3.0 12.0 0.00 0.00 0.00 42 1013.5
20240225183005 54 208 5.0 12.0 0.00 0.00 0.00 43 1013.3
20240225182532 53 156 5.0 13.0 0.00 0.00 0.00 42 1013.4
20240225182505 53 201 6.0 12.0 0.00 0.00 0.00 42 1013.2
20240225182030 53 226 6.0 15.0 0.00 0.00 0.00 42 1013.3
20240225181535 54 231 5.0 15.0 0.00 0.00 0.00 41 1013.3
20240225181506 54 188 8.0 13.0 0.00 0.00 0.00 41 1013.1
20240225181028 54 182 7.0 15.0 0.00 0.00 0.00 42 1013.3
20240225181005 55 198 8.0 16.0 0.00 0.00 0.00 41 1013.1
20240225180528 54 214 8.0 15.0 0.00 0.00 0.00 41 1013.4
20240225180505 54 207 7.0 16.0 0.00 0.00 0.00 41 1013.1
20240225180036 53 254 8.0 15.0 0.00 0.00 0.00 41 1013.4
20240225180005 54 203 6.0 14.0 0.00 0.00 0.00 41 1013.1
20240225175531 54 211 6.0 15.0 0.00 0.00 0.00 40 1013.7
20240225175505 54 207 7.0 16.0 0.00 0.00 0.00 41 1013.4
20240225175028 54 240 6.0 19.0 0.00 0.00 0.00 41 1013.6
20240225175004 54 209 7.0 19.0 0.00 0.00 0.00 41 1013.5
20240225174540 53 173 7.0 19.0 0.00 0.00 0.00 41 1013.6
20240225174506 54 207 6.0 19.0 0.00 0.00 0.00 41 1013.6
20240225174031 53 251 7.0 19.0 0.00 0.00 0.00 41 1013.9
20240225173528 53 215 5.0 11.0 0.00 0.00 0.00 42 1014.2
20240225173505 53 208 4.0 10.0 0.00 0.00 0.00 43 1013.9
20240225173038 53 215 3.0 13.0 0.00 0.00 0.00 41 1014.2
20240225173006 54 215 5.0 11.0 0.00 0.00 0.00 42 1014.1
20240225172532 52 158 7.0 13.0 0.00 0.00 0.00 43 1014.5
20240225172506 52 209 6.0 12.0 0.00 0.00 0.00 44 1014.2
20240225172031 51 172 3.0 14.0 0.00 0.00 0.00 44 1014.6
20240225172006 52 204 6.0 14.0 0.00 0.00 0.00 45 1014.3
20240225171532 50 176 7.0 14.0 0.00 0.00 0.00 45 1014.7
20240225171505 51 198 5.0 15.0 0.00 0.00 0.00 45 1014.4
20240225171029 50 222 6.0 14.0 0.00 0.00 0.00 45 1014.8
20240225171005 50 203 4.0 15.0 0.00 0.00 0.00 45 1014.5
20240225170531 50 169 3.0 13.0 0.00 0.00 0.00 44 1015.0
20240225170504 51 219 5.0 13.0 0.00 0.00 0.00 44 1014.6
20240225170040 50 210 3.0 14.0 0.00 0.00 0.00 45 1014.8
20240225170005 51 213 5.0 14.0 0.00 0.00 0.00 46 1014.5
20240225165530 49 222 6.0 14.0 0.00 0.00 0.00 46 1014.8
20240225165505 50 217 5.0 14.0 0.00 0.00 0.00 46 1014.6
20240225165029 49 270 5.0 12.0 0.00 0.00 0.00 46 1015.0
20240225164537 49 172 2.0 12.0 0.00 0.00 0.00 47 1015.2
20240225164506 49 192 5.0 14.0 0.00 0.00 0.00 48 1014.8
20240225164030 48 172 6.0 12.0 0.00 0.00 0.00 47 1015.3
20240225164006 48 200 5.0 12.0 0.00 0.00 0.00 48 1014.9
20240225163533 48 188 4.0 15.0 0.00 0.00 0.00 48 1015.4
20240225163042 47 289 5.0 15.0 0.00 0.00 0.00 49 1015.5
20240225162528 47 271 5.0 15.0 0.00 0.00 0.00 50 1015.7
20240225162506 47 233 6.0 16.0 0.00 0.00 0.00 49 1015.2
20240225162028 46 236 5.0 15.0 0.00 0.00 0.00 50 1015.6
20240225162005 47 222 6.0 16.0 0.00 0.00 0.00 51 1015.4
20240225161533 46 208 7.0 15.0 0.00 0.00 0.00 50 1015.7
20240225161506 46 226 6.0 16.0 0.00 0.00 0.00 51 1015.5
20240225161034 46 221 4.0 14.0 0.00 0.00 0.00 51 1015.9
20240225161004 46 218 6.0 13.0 0.00 0.00 0.00 51 1015.6
20240225160530 45 256 7.0 14.0 0.00 0.00 0.00 52 1016.0
20240225160505 45 219 4.0 13.0 0.00 0.00 0.00 52 1015.6
20240225160040 45 231 6.0 12.0 0.00 0.00 0.00 52 1016.2
20240225155530 45 252 4.0 11.0 0.00 0.00 0.00 52 1016.2
20240225155506 45 221 5.0 12.0 0.00 0.00 0.00 53 1015.8
20240225155028 45 249 2.0 14.0 0.00 0.00 0.00 54 1016.1
20240225155006 45 226 5.0 11.0 0.00 0.00 0.00 56 1015.8
20240225154532 43 182 5.0 16.0 0.00 0.00 0.00 56 1016.2
20240225154505 44 222 4.0 15.0 0.00 0.00 0.00 56 1015.9
20240225154028 43 221 7.0 16.0 0.00 0.00 0.00 56 1016.2
20240225154004 43 216 3.0 15.0 0.00 0.00 0.00 56 1016.0
20240225153528 44 150 1.0 8.0 0.00 0.00 0.00 56 1016.3
20240225153505 44 203 4.0 8.0 0.00 0.00 0.00 57 1016.0
20240225153039 43 276 3.0 11.0 0.00 0.00 0.00 59 1016.5
20240225153005 43 192 5.0 12.0 0.00 0.00 0.00 60 1016.2
20240225152527 42 169 5.0 11.0 0.00 0.00 0.00 59 1016.4
20240225152505 42 196 4.0 12.0 0.00 0.00 0.00 59 1016.2
20240225152028 41 181 4.0 14.0 0.00 0.00 0.00 59 1016.4
20240225152005 42 199 4.0 11.0 0.00 0.00 0.00 60 1016.2
20240225151533 41 252 3.0 14.0 0.00 0.00 0.00 62 1016.4
20240225151504 41 184 4.0 12.0 0.00 0.00 0.00 63 1016.1
20240225151029 40 170 5.0 14.0 0.00 0.00 0.00 63 1016.3
20240225151006 40 184 3.0 12.0 0.00 0.00 0.00 64 1016.3
20240225150527 40 141 3.0 9.0 0.00 0.00 0.00 64 1016.4
20240225150505 40 196 3.0 9.0 0.00 0.00 0.00 65 1016.2
20240225150041 39 165 3.0 9.0 0.00 0.00 0.00 65 1016.6
20240225145528 39 191 3.0 13.0 0.00 0.00 0.00 66 1016.7
20240225145506 39 198 4.0 12.0 0.00 0.00 0.00 67 1016.5
20240225145028 38 187 3.0 13.0 0.00 0.00 0.00 67 1016.8
20240225145005 39 201 5.0 12.0 0.00 0.00 0.00 67 1016.6
20240225144534 38 217 4.0 12.0 0.00 0.00 0.00 66 1016.9
20240225144505 38 200 4.0 13.0 0.00 0.00 0.00 67 1016.7
20240225144028 37 191 5.0 12.0 0.00 0.00 0.00 67 1016.9
20240225144004 38 205 4.0 13.0 0.00 0.00 0.00 68 1016.6
20240225143527 37 216 2.0 11.0 0.00 0.00 0.00 67 1016.8
20240225143506 38 232 4.0 12.0 0.00 0.00 0.00 69 1016.7
20240225143036 36 255 5.0 11.0 0.00 0.00 0.00 68 1017.1
20240225143005 37 227 4.0 12.0 0.00 0.00 0.00 68 1016.8
20240225142528 36 238 5.0 12.0 0.00 0.00 0.00 69 1017.1
20240225142504 37 212 4.0 13.0 0.00 0.00 0.00 69 1016.8
20240225142028 36 210 4.0 12.0 0.00 0.00 0.00 69 1017.1
20240225142006 36 219 4.0 13.0 0.00 0.00 0.00 70 1016.8
20240225141533 35 185 3.0 10.0 0.00 0.00 0.00 70 1017.1
20240225141507 36 210 4.0 10.0 0.00 0.00 0.00 71 1016.6
20240225141028 35 233 4.0 11.0 0.00 0.00 0.00 70 1016.8
20240225141004 36 201 4.0 10.0 0.00 0.00 0.00 71 1016.6
20240225140528 35 164 3.0 11.0 0.00 0.00 0.00 71 1016.8
20240225140506 35 199 4.0 11.0 0.00 0.00 0.00 72 1016.5
20240225140037 34 172 5.0 11.0 0.00 0.00 0.00 72 1016.8
20240225140005 35 192 4.0 11.0 0.00 0.00 0.00 72 1016.5
20240225135529 34 252 4.0 10.0 0.00 0.00 0.00 72 1016.7
20240225135504 34 196 4.0 9.0 0.00 0.00 0.00 73 1016.4
20240225135029 33 217 4.0 10.0 0.00 0.00 0.00 73 1016.6
20240225135006 34 194 4.0 9.0 0.00 0.00 0.00 73 1016.4
20240225134532 33 172 4.0 10.0 0.00 0.00 0.00 73 1016.5
20240225134029 33 179 5.0 10.0 0.00 0.00 0.00 74 1016.6
20240225134005 33 188 4.0 9.0 0.00 0.00 0.00 74 1016.4
20240225133528 32 163 4.0 10.0 0.00 0.00 0.00 75 1016.6
20240225133504 33 192 4.0 10.0 0.00 0.00 0.00 75 1016.3
20240225133045 32 191 5.0 10.0 0.00 0.00 0.00 75 1016.8
20240225132532 32 219 3.0 10.0 0.00 0.00 0.00 76 1016.8
20240225132505 32 199 3.0 9.0 0.00 0.00 0.00 77 1016.4
20240225132030 31 184 4.0 7.0 0.00 0.00 0.00 76 1016.7
20240225132004 32 184 3.0 8.0 0.00 0.00 0.00 76 1016.4
20240225131537 31 233 4.0 7.0 0.00 0.00 0.00 77 1016.6
20240225131504 31 176 4.0 8.0 0.00 0.00 0.00 77 1016.4
20240225131027 30 200 3.0 8.0 0.00 0.00 0.00 77 1016.8
20240225131005 31 177 4.0 8.0 0.00 0.00 0.00 78 1016.4
20240225130528 30 162 4.0 8.0 0.00 0.00 0.00 78 1016.6
20240225130505 31 178 4.0 9.0 0.00 0.00 0.00 78 1016.3
20240225130036 30 150 4.0 8.0 0.00 0.00 0.00 79 1016.6
20240225130004 30 184 4.0 9.0 0.00 0.00 0.00 79 1016.3
20240225125531 29 198 4.0 8.0 0.00 0.00 0.00 80 1016.5
20240225125504 29 182 5.0 9.0 0.00 0.00 0.00 80 1016.3
20240225125029 29 172 4.0 8.0 0.00 0.00 0.00 80 1016.5
20240225125006 29 175 5.0 9.0 0.00 0.00 0.00 81 1016.2
20240225124534 29 142 4.0 9.0 0.00 0.00 0.00 81 1016.4
20240225124028 28 191 4.0 9.0 0.00 0.00 0.00 81 1016.4
20240225124006 29 178 4.0 10.0 0.00 0.00 0.00 81 1016.1
20240225123527 28 171 4.0 9.0 0.00 0.00 0.00 81 1016.4
20240225123505 29 190 4.0 10.0 0.00 0.00 0.00 82 1016.2
20240225123036 28 162 4.0 9.0 0.00 0.00 0.00 82 1016.3
20240225122528 28 169 4.0 9.0 0.00 0.00 0.00 82 1016.4
20240225122504 28 167 4.0 10.0 0.00 0.00 0.00 82 1016.2
20240225122033 28 190 4.0 9.0 0.00 0.00 0.00 82 1016.4
20240225122005 28 165 4.0 9.0 0.00 0.00 0.00 82 1016.1
20240225121538 28 163 3.0 7.0 0.00 0.00 0.00 82 1016.5
20240225121505 28 167 3.0 7.0 0.00 0.00 0.00 82 1016.3
20240225121028 28 163 4.0 7.0 0.00 0.00 0.00 82 1016.6
20240225121004 28 166 3.0 7.0 0.00 0.00 0.00 82 1016.3
20240225120528 28 150 3.0 7.0 0.00 0.00 0.00 82 1016.6
20240225120506 28 164 4.0 8.0 0.00 0.00 0.00 82 1016.4
20240225120034 28 157 4.0 7.0 0.00 0.00 0.00 82 1016.5
20240225120004 28 169 4.0 8.0 0.00 0.00 0.00 82 1016.3
20240225115528 28 150 3.0 7.0 0.00 0.00 0.00 82 1016.5
20240225115505 28 173 4.0 7.0 0.00 0.00 0.00 82 1016.4
20240225115030 28 197 3.0 7.0 0.00 0.00 0.00 82 1016.6
20240225115004 28 173 4.0 8.0 0.00 0.00 0.00 82 1016.4
20240225114536 28 183 3.0 7.0 0.00 0.00 0.00 82 1016.6
20240225114032 28 150 4.0 7.0 0.00 0.00 0.00 82 1016.6
20240225114005 28 174 3.0 7.0 0.00 0.00 0.00 82 1016.4
20240225113528 28 145 3.0 5.0 0.00 0.00 0.00 82 1016.7
20240225113505 28 170 3.0 6.0 0.00 0.00 0.00 83 1016.5
20240225113031 27 171 3.0 6.0 0.00 0.00 0.00 82 1016.7
20240225112528 27 165 3.0 6.0 0.00 0.00 0.00 82 1016.7
20240225112506 28 173 3.0 6.0 0.00 0.00 0.00 82 1016.6
20240225112028 28 184 3.0 6.0 0.00 0.00 0.00 82 1016.7
20240225112005 28 171 3.0 6.0 0.00 0.00 0.00 82 1016.5
20240225111532 28 151 2.0 6.0 0.00 0.00 0.00 82 1016.7
20240225111504 28 169 4.0 7.0 0.00 0.00 0.00 82 1016.6
20240225111031 28 166 3.0 8.0 0.00 0.00 0.00 82 1016.8
20240225111004 28 171 4.0 7.0 0.00 0.00 0.00 82 1016.6
20240225110528 28 159 3.0 8.0 0.00 0.00 0.00 82 1016.7
20240225110504 28 174 4.0 9.0 0.00 0.00 0.00 82 1016.6
20240225110031 28 181 4.0 8.0 0.00 0.00 0.00 81 1016.8
20240225110005 28 175 3.0 9.0 0.00 0.00 0.00 82 1016.7
20240225105530 28 191 3.0 7.0 0.00 0.00 0.00 81 1017.0
20240225105028 28 170 2.0 7.0 0.00 0.00 0.00 82 1016.7
20240225105005 28 176 3.0 7.0 0.00 0.00 0.00 82 1016.6
20240225104529 28 174 3.0 7.0 0.00 0.00 0.00 81 1016.8
20240225104504 28 173 3.0 8.0 0.00 0.00 0.00 82 1016.6
20240225104031 28 174 4.0 7.0 0.00 0.00 0.00 81 1016.9
20240225104005 28 174 3.0 8.0 0.00 0.00 0.00 82 1016.7
20240225103528 28 179 3.0 7.0 0.00 0.00 0.00 81 1017.0
20240225103504 28 176 3.0 7.0 0.00 0.00 0.00 82 1016.8
20240225103036 28 172 2.0 6.0 0.00 0.00 0.00 81 1017.1
20240225103004 28 177 3.0 7.0 0.00 0.00 0.00 82 1016.8
20240225102527 28 185 3.0 6.0 0.00 0.00 0.00 81 1017.1
20240225102505 28 177 3.0 7.0 0.00 0.00 0.00 82 1016.9
20240225102029 27 182 3.0 5.0 0.00 0.00 0.00 82 1017.2
20240225102004 28 171 3.0 5.0 0.00 0.00 0.00 82 1016.8
20240225101533 28 199 3.0 5.0 0.00 0.00 0.00 82 1017.1
20240225101504 28 171 3.0 5.0 0.00 0.00 0.00 82 1016.8
20240225101031 28 164 3.0 5.0 0.00 0.00 0.00 81 1017.1
20240225101004 28 172 3.0 5.0 0.00 0.00 0.00 82 1016.8
20240225100531 28 162 2.0 5.0 0.00 0.00 0.00 81 1017.0
20240225100505 28 176 3.0 6.0 0.00 0.00 0.00 82 1016.7
20240225100038 28 150 3.0 8.0 0.00 0.00 0.00 81 1017.0
20240225100004 28 175 3.0 8.0 0.00 0.00 0.00 81 1016.7
20240225095531 28 155 3.0 8.0 0.00 0.00 0.00 81 1016.9
20240225095505 28 173 3.0 8.0 0.00 0.00 0.00 81 1016.6
20240225095032 28 189 3.0 6.0 0.00 0.00 0.00 81 1016.8
20240225095004 28 174 2.0 7.0 0.00 0.00 0.00 82 1016.7
20240225094532 28 165 3.0 5.0 0.00 0.00 0.00 82 1016.9
20240225094506 28 179 3.0 5.0 0.00 0.00 0.00 82 1016.8
20240225094031 28 230 2.0 6.0 0.00 0.00 0.00 82 1017.1
20240225094005 28 177 3.0 6.0 0.00 0.00 0.00 82 1016.9
20240225093530 28 150 3.0 6.0 0.00 0.00 0.00 81 1017.1
20240225093504 28 177 3.0 6.0 0.00 0.00 0.00 82 1016.9
20240225093036 28 200 3.0 6.0 0.00 0.00 0.00 81 1017.1
20240225093005 28 176 3.0 6.0 0.00 0.00 0.00 82 1016.9
20240225092531 28 190 2.0 6.0 0.00 0.00 0.00 82 1017.1
20240225092505 28 174 2.0 6.0 0.00 0.00 0.00 82 1017.0
20240225092032 27 205 2.0 4.0 0.00 0.00 0.00 82 1017.1
20240225092004 28 174 2.0 5.0 0.00 0.00 0.00 82 1016.9
20240225091535 27 173 2.0 5.0 0.00 0.00 0.00 82 1017.0
20240225091505 28 174 2.0 5.0 0.00 0.00 0.00 82 1017.0
20240225091031 27 181 2.0 5.0 0.00 0.00 0.00 82 1017.3
20240225091004 28 182 2.0 5.0 0.00 0.00 0.00 82 1017.1
20240225090530 27 136 2.0 5.0 0.00 0.00 0.00 82 1017.2
20240225090057 28 180 3.0 6.0 0.00 0.00 0.00 81 1017.2
20240225090006 28 176 3.0 6.0 0.00 0.00 0.00 82 1017.0
20240225085531 28 156 2.0 6.0 0.00 0.00 0.00 81 1017.2
20240225085505 28 175 3.0 6.0 0.00 0.00 0.00 82 1017.0
20240225085031 28 162 3.0 6.0 0.00 0.00 0.00 81 1017.2
20240225084537 28 151 3.0 6.0 0.00 0.00 0.00 81 1017.2
20240225084504 28 172 2.0 6.0 0.00 0.00 0.00 82 1017.0
20240225084031 27 152 2.0 4.0 0.00 0.00 0.00 82 1017.2
20240225084004 28 172 2.0 5.0 0.00 0.00 0.00 82 1017.1
20240225083532 27 149 2.0 5.0 0.00 0.00 0.00 82 1017.4
20240225083505 28 178 3.0 6.0 0.00 0.00 0.00 83 1017.2
20240225083053 27 164 2.0 6.0 0.00 0.00 0.00 82 1017.5
20240225082531 27 167 3.0 6.0 0.00 0.00 0.00 82 1017.3
20240225082034 27 172 3.0 6.0 0.00 0.00 0.00 82 1017.4
20240225082005 28 176 3.0 6.0 0.00 0.00 0.00 83 1017.2
20240225081544 27 174 3.0 6.0 0.00 0.00 0.00 82 1017.4
20240225081504 28 176 3.0 6.0 0.00 0.00 0.00 82 1017.2
20240225081031 27 184 2.0 5.0 0.00 0.00 0.00 81 1017.5
20240225081004 28 170 3.0 6.0 0.00 0.00 0.00 82 1017.3
20240225080536 27 177 2.0 5.0 0.00 0.00 0.00 81 1017.5
20240225080505 28 166 2.0 6.0 0.00 0.00 0.00 82 1017.4
20240225080037 27 167 3.0 5.0 0.00 0.00 0.00 82 1017.7
20240225080006 28 167 2.0 6.0 0.00 0.00 0.00 82 1017.4
20240225075531 28 150 2.0 5.0 0.00 0.00 0.00 81 1017.8
20240225075505 28 169 2.0 6.0 0.00 0.00 0.00 82 1017.6
20240225075031 27 162 2.0 4.0 0.00 0.00 0.00 82 1017.7
20240225075005 28 167 2.0 5.0 0.00 0.00 0.00 82 1017.6
20240225074534 28 179 2.0 4.0 0.00 0.00 0.00 81 1017.7
20240225074505 28 168 2.0 5.0 0.00 0.00 0.00 82 1017.5
20240225074031 28 156 1.0 4.0 0.00 0.00 0.00 81 1017.7
20240225074005 28 170 2.0 5.0 0.00 0.00 0.00 81 1017.6
20240225073532 28 148 2.0 5.0 0.00 0.00 0.00 80 1017.7
20240225073505 28 170 2.0 5.0 0.00 0.00 0.00 81 1017.5
20240225073046 28 180 2.0 5.0 0.00 0.00 0.00 80 1017.7
20240225073004 28 171 2.0 5.0 0.00 0.00 0.00 81 1017.6
20240225072531 28 179 2.0 5.0 0.00 0.00 0.00 80 1017.8
20240225072505 29 170 3.0 5.0 0.00 0.00 0.00 80 1017.6
20240225072031 28 174 2.0 5.0 0.00 0.00 0.00 80 1017.9
20240225072006 29 169 3.0 6.0 0.00 0.00 0.00 80 1017.6
20240225071533 29 162 3.0 5.0 0.00 0.00 0.00 79 1018.0
20240225071505 29 170 2.0 6.0 0.00 0.00 0.00 80 1017.6
20240225071034 28 170 2.0 5.0 0.00 0.00 0.00 80 1018.0
20240225071005 29 170 2.0 6.0 0.00 0.00 0.00 80 1017.7
20240225070531 28 165 2.0 4.0 0.00 0.00 0.00 80 1018.1
20240225070505 29 172 2.0 5.0 0.00 0.00 0.00 80 1017.8
20240225070034 28 180 1.0 4.0 0.00 0.00 0.00 80 1018.1
20240225070004 29 172 1.0 5.0 0.00 0.00 0.00 81 1017.9
20240225065532 28 165 2.0 3.0 0.00 0.00 0.00 80 1018.1
20240225065506 29 170 1.0 4.0 0.00 0.00 0.00 81 1017.9
20240225065031 28 182 1.0 3.0 0.00 0.00 0.00 80 1018.0
20240225065005 29 167 1.0 4.0 0.00 0.00 0.00 81 1017.9
20240225064538 28 167 1.0 3.0 0.00 0.00 0.00 80 1018.0
20240225064505 29 163 1.0 4.0 0.00 0.00 0.00 81 1017.9
20240225064033 28 0 0.0 4.0 0.00 0.00 0.00 80 1018.2
20240225064006 29 170 1.0 5.0 0.00 0.00 0.00 80 1017.9
20240225063531 29 162 2.0 4.0 0.00 0.00 0.00 79 1018.0
20240225063038 28 193 2.0 4.0 0.00 0.00 0.00 80 1018.1
20240225063004 29 171 1.0 4.0 0.00 0.00 0.00 80 1017.9
20240225062530 28 174 0.0 3.0 0.00 0.00 0.00 80 1018.1
20240225062030 28 155 2.0 3.0 0.00 0.00 0.00 80 1018.2
20240225062004 29 178 1.0 4.0 0.00 0.00 0.00 80 1017.8
20240225061535 28 195 0.0 4.0 0.00 0.00 0.00 80 1018.0
20240225061505 29 187 2.0 5.0 0.00 0.00 0.00 81 1017.8
20240225061033 28 175 1.0 4.0 0.00 0.00 0.00 79 1018.0
20240225061004 29 181 2.0 5.0 0.00 0.00 0.00 80 1017.7
20240225060528 28 183 2.0 4.0 0.00 0.00 0.00 79 1017.8
20240225060506 29 177 2.0 5.0 0.00 0.00 0.00 80 1017.5
20240225060041 29 178 2.0 4.0 0.00 0.00 0.00 79 1017.8
20240225055531 29 178 1.0 5.0 0.00 0.00 0.00 79 1017.7
20240225055505 29 177 2.0 5.0 0.00 0.00 0.00 79 1017.5
20240225055031 29 185 2.0 5.0 0.00 0.00 0.00 79 1017.7
20240225054543 29 167 1.0 3.0 0.00 0.00 0.00 78 1017.9
20240225054504 29 179 1.0 4.0 0.00 0.00 0.00 79 1017.7
20240225054031 29 230 2.0 4.0 0.00 0.00 0.00 78 1017.8
20240225054005 29 179 2.0 3.0 0.00 0.00 0.00 79 1017.5
20240225053531 29 184 1.0 4.0 0.00 0.00 0.00 78 1017.8
20240225053504 29 172 2.0 5.0 0.00 0.00 0.00 78 1017.5
20240225053033 29 168 2.0 4.0 0.00 0.00 0.00 78 1017.7
20240225053004 29 171 1.0 5.0 0.00 0.00 0.00 79 1017.5
20240225052533 29 160 2.0 4.0 0.00 0.00 0.00 78 1017.8
20240225052504 29 170 1.0 5.0 0.00 0.00 0.00 78 1017.6
20240225052031 29 188 1.0 3.0 0.00 0.00 0.00 78 1017.9
20240225051537 29 169 1.0 3.0 0.00 0.00 0.00 78 1018.1
20240225051505 29 173 1.0 3.0 0.00 0.00 0.00 78 1018.0
20240225051034 29 164 1.0 3.0 0.00 0.00 0.00 78 1018.2
20240225051004 29 177 1.0 3.0 0.00 0.00 0.00 78 1018.0
20240225050530 29 186 0.0 3.0 0.00 0.00 0.00 78 1018.2
20240225050504 29 176 1.0 3.0 0.00 0.00 0.00 79 1018.0
20240225050034 29 174 1.0 3.0 0.00 0.00 0.00 78 1018.3
20240225050006 29 166 1.0 3.0 0.00 0.00 0.00 78 1018.1
20240225045530 29 174 1.0 2.0 0.00 0.00 0.00 78 1018.3
20240225045505 29 165 1.0 3.0 0.00 0.00 0.00 79 1018.1
20240225045029 29 164 0.0 2.0 0.00 0.00 0.00 78 1018.3
20240225044541 29 174 1.0 2.0 0.00 0.00 0.00 78 1018.3
20240225044030 29 160 0.0 3.0 0.00 0.00 0.00 78 1018.3
20240225043531 29 0 0.0 3.0 0.00 0.00 0.00 77 1018.2
20240225043031 29 157 1.0 3.0 0.00 0.00 0.00 77 1018.1
20240225043005 29 175 1.0 3.0 0.00 0.00 0.00 78 1017.9
20240225042528 29 193 0.0 3.0 0.00 0.00 0.00 77 1018.3
20240225042504 30 175 1.0 3.0 0.00 0.00 0.00 77 1018.1
20240225042034 29 170 0.0 3.0 0.00 0.00 0.00 77 1018.1
20240225042005 30 165 2.0 4.0 0.00 0.00 0.00 77 1017.9
20240225041540 29 169 2.0 5.0 0.00 0.00 0.00 76 1018.1
20240225041504 30 161 2.0 5.0 0.00 0.00 0.00 77 1017.7
20240225041028 29 169 1.0 5.0 0.00 0.00 0.00 76 1018.0
20240225041006 30 158 2.0 5.0 0.00 0.00 0.00 77 1017.7
20240225040531 29 150 1.0 4.0 0.00 0.00 0.00 76 1017.9
20240225040504 30 156 2.0 5.0 0.00 0.00 0.00 76 1017.7
20240225040058 30 137 2.0 4.0 0.00 0.00 0.00 75 1018.1
20240225040005 30 158 2.0 4.0 0.00 0.00 0.00 76 1017.9
20240225035531 29 152 1.0 4.0 0.00 0.00 0.00 76 1018.1
20240225035032 30 169 2.0 4.0 0.00 0.00 0.00 76 1018.3
20240225035004 30 153 2.0 5.0 0.00 0.00 0.00 76 1018.0
20240225034533 29 150 2.0 4.0 0.00 0.00 0.00 76 1018.3
20240225034505 30 152 1.0 5.0 0.00 0.00 0.00 77 1018.1
20240225034034 30 142 1.0 3.0 0.00 0.00 0.00 77 1018.6
20240225034005 30 148 1.0 2.0 0.00 0.00 0.00 77 1018.4
20240225033531 30 150 1.0 2.0 0.00 0.00 0.00 77 1018.7
20240225033504 30 141 0.0 2.0 0.00 0.00 0.00 77 1018.4
20240225033032 29 131 0.0 1.0 0.00 0.00 0.00 78 1018.9
20240225033005 30 130 0.0 1.0 0.00 0.00 0.00 78 1018.7
20240225032531 29 151 0.0 1.0 0.00 0.00 0.00 78 1019.1
20240225032504 30 150 0.0 1.0 0.00 0.00 0.00 78 1018.8
20240225032031 29 153 0.0 1.0 0.00 0.00 0.00 78 1019.1
20240225032005 30 150 0.0 1.0 0.00 0.00 0.00 79 1018.9
20240225031539 29 142 0.0 1.0 0.00 0.00 0.00 79 1019.2
20240225031504 30 150 0.0 1.0 0.00 0.00 0.00 79 1018.9
20240225031031 29 0 0.0 0.0 0.00 0.00 0.00 80 1019.2
20240225031004 30 0 0.0 0.0 0.00 0.00 0.00 80 1018.9
20240225030529 29 0 0.0 0.0 0.00 0.00 0.00 77 1019.1
20240225030505 30 0 0.0 0.0 0.00 0.00 0.00 78 1018.8
20240225030042 30 0 0.0 2.0 0.00 0.00 0.00 78 1019.2
20240225025531 30 0 0.0 2.0 0.00 0.00 0.00 76 1019.0
20240225025504 30 160 1.0 2.0 0.00 0.00 0.00 76 1018.8
20240225025031 30 160 2.0 2.0 0.00 0.00 0.00 75 1018.9
20240225025004 31 160 0.0 3.0 0.00 0.00 0.00 76 1018.8
20240225024537 30 158 1.0 2.0 0.00 0.00 0.00 76 1018.9
20240225024035 30 154 0.0 2.0 0.00 0.00 0.00 77 1018.8
20240225023531 30 159 0.0 2.0 0.00 0.00 0.00 78 1018.9
20240225023504 30 158 0.0 2.0 0.00 0.00 0.00 78 1018.9
20240225023044 29 156 1.0 1.0 0.00 0.00 0.00 78 1019.1
20240225023004 30 158 0.0 1.0 0.00 0.00 0.00 78 1018.9
20240225022528 29 167 0.0 0.0 0.00 0.00 0.00 79 1019.2
20240225022504 29 0 0.0 0.0 0.00 0.00 0.00 80 1019.0
20240225022032 29 0 0.0 0.0 0.00 0.00 0.00 80 1019.2
20240225022005 29 0 0.0 0.0 0.00 0.00 0.00 81 1019.0
20240225021541 29 0 0.0 0.0 0.00 0.00 0.00 79 1019.2
20240225021504 29 0 0.0 0.0 0.00 0.00 0.00 79 1019.0
20240225021033 29 0 0.0 0.0 0.00 0.00 0.00 79 1019.2
20240225021004 30 0 0.0 0.0 0.00 0.00 0.00 79 1018.9
20240225020531 29 0 0.0 0.0 0.00 0.00 0.00 78 1019.1
20240225020505 30 0 0.0 0.0 0.00 0.00 0.00 78 1018.8
20240225020035 29 0 0.0 0.0 0.00 0.00 0.00 77 1019.1
20240225020004 30 0 0.0 0.0 0.00 0.00 0.00 77 1018.9
20240225015533 29 0 0.0 1.0 0.00 0.00 0.00 77 1019.1
20240225015505 30 0 0.0 0.0 0.00 0.00 0.00 78 1019.0
20240225015031 30 167 0.0 2.0 0.00 0.00 0.00 77 1019.1
20240225015005 30 167 0.0 2.0 0.00 0.00 0.00 77 1018.8
20240225014549 30 0 0.0 2.0 0.00 0.00 0.00 77 1018.9
20240225014032 29 0 0.0 0.0 0.00 0.00 0.00 79 1018.9
20240225014004 29 0 0.0 0.0 0.00 0.00 0.00 80 1018.7
20240225013534 29 0 0.0 0.0 0.00 0.00 0.00 78 1018.8
20240225013039 30 0 0.0 0.0 0.00 0.00 0.00 77 1018.8
20240225013005 30 0 0.0 0.0 0.00 0.00 0.00 78 1018.5
20240225012531 30 0 0.0 0.0 0.00 0.00 0.00 77 1018.8
20240225012504 30 0 0.0 0.0 0.00 0.00 0.00 77 1018.5
20240225012033 30 0 0.0 0.0 0.00 0.00 0.00 78 1018.7
20240225012005 30 0 0.0 0.0 0.00 0.00 0.00 78 1018.6
20240225011549 30 0 0.0 0.0 0.00 0.00 0.00 78 1018.8
20240225011504 30 0 0.0 0.0 0.00 0.00 0.00 78 1018.5
20240225011032 30 0 0.0 0.0 0.00 0.00 0.00 75 1018.8
20240225011004 31 0 0.0 0.0 0.00 0.00 0.00 76 1018.5
20240225010531 30 0 0.0 0.0 0.00 0.00 0.00 75 1018.7
20240225010506 31 0 0.0 0.0 0.00 0.00 0.00 76 1018.4
20240225010040 30 0 0.0 0.0 0.00 0.00 0.00 76 1018.7
20240225010005 31 0 0.0 0.0 0.00 0.00 0.00 76 1018.6
20240225005528 31 0 0.0 0.0 0.00 0.00 0.00 75 1018.7
20240225005505 31 0 0.0 0.0 0.00 0.00 0.00 75 1018.5
20240225005031 30 0 0.0 0.0 0.00 0.00 0.00 74 1018.8
20240225005005 31 0 0.0 0.0 0.00 0.00 0.00 74 1018.6
20240225004542 30 0 0.0 0.0 0.00 0.00 0.00 75 1018.8
20240225004504 31 0 0.0 0.0 0.00 0.00 0.00 75 1018.6
20240225004031 31 0 0.0 0.0 0.00 0.00 0.00 74 1018.8
20240225004004 31 0 0.0 0.0 0.00 0.00 0.00 75 1018.5
20240225003528 31 0 0.0 0.0 0.00 0.00 0.00 74 1018.8
20240225003504 31 0 0.0 0.0 0.00 0.00 0.00 74 1018.5
20240225003037 31 0 0.0 0.0 0.00 0.00 0.00 72 1018.7
20240225003005 32 0 0.0 0.0 0.00 0.00 0.00 72 1018.4
20240225002532 31 0 0.0 1.0 0.00 0.00 0.00 73 1018.7
20240225002503 32 0 0.0 0.0 0.00 0.00 0.00 73 1018.4
20240225002029 32 0 0.0 1.0 0.00 0.00 0.00 72 1018.6
20240225002005 32 72 0.0 1.0 0.00 0.00 0.00 71 1018.3
20240225001547 32 0 0.0 1.0 0.00 0.00 0.00 71 1018.5
20240225001504 32 72 0.0 1.0 0.00 0.00 0.00 71 1018.3
20240225001031 31 0 0.0 0.0 0.00 0.00 0.00 71 1018.7
20240225000531 32 0 0.0 0.0 0.00 0.00 0.00 71 1018.5
20240225000506 32 0 0.0 0.0 0.00 0.00 0.00 71 1018.3
20240225000047 32 0 0.0 0.0 0.00 0.00 0.00 70 1018.6
20240225000004 32 0 0.0 0.0 0.00 0.00 0.00 70 1018.4
20240224235529 32 0 0.0 0.0 0.00 0.00 0.00 70 1018.7
20240224235505 32 0 0.0 0.0 0.00 0.00 0.00 70 1018.4
20240224235033 32 0 0.0 0.0 0.00 0.00 0.00 68 1018.7
20240224235004 33 0 0.0 0.0 0.00 0.00 0.00 69 1018.4
20240224234543 33 0 0.0 1.0 0.00 0.00 0.00 67 1018.7
20240224234504 33 0 0.0 0.0 0.00 0.00 0.00 67 1018.4
20240224234030 33 0 0.0 1.0 0.00 0.00 0.00 66 1018.6
20240224234004 34 69 0.0 1.0 0.00 0.00 0.00 67 1018.4
20240224233531 33 0 0.0 1.0 0.00 0.00 0.00 66 1018.6
20240224233505 34 69 1.0 1.0 0.00 0.00 0.00 66 1018.3
20240224233040 34 61 0.0 3.0 0.00 0.00 0.00 66 1018.5
20240224233004 34 2 2.0 2.0 0.00 0.00 0.00 66 1018.2
20240224232531 34 0 0.0 6.0 0.00 0.00 0.00 65 1018.4
20240224232504 34 2 3.0 5.0 0.00 0.00 0.00 65 1018.3
20240224232029 34 358 1.0 6.0 0.00 0.00 0.00 64 1018.5
20240224231543 34 6 4.0 7.0 0.00 0.00 0.00 64 1018.3
20240224231503 35 357 3.0 7.0 0.00 0.00 0.00 65 1018.1
20240224231032 34 338 3.0 7.0 0.00 0.00 0.00 64 1018.2
20240224231005 35 359 2.0 6.0 0.00 0.00 0.00 65 1018.0
20240224230531 35 1 3.0 7.0 0.00 0.00 0.00 65 1018.3
20240224230504 35 348 1.0 6.0 0.00 0.00 0.00 66 1017.9
20240224230035 35 345 1.0 4.0 0.00 0.00 0.00 66 1018.3
20240224225531 35 357 1.0 4.0 0.00 0.00 0.00 66 1018.0
20240224225033 35 291 0.0 4.0 0.00 0.00 0.00 67 1018.2
20240224225004 35 294 1.0 4.0 0.00 0.00 0.00 67 1017.9
20240224224544 35 283 1.0 4.0 0.00 0.00 0.00 66 1018.2
20240224224504 35 299 1.0 4.0 0.00 0.00 0.00 66 1018.0
20240224224029 35 319 1.0 3.0 0.00 0.00 0.00 66 1018.2
20240224224004 35 293 3.0 3.0 0.00 0.00 0.00 66 1017.9
20240224223529 35 285 0.0 8.0 0.00 0.00 0.00 65 1018.1
20240224223504 35 342 4.0 9.0 0.00 0.00 0.00 65 1017.9
20240224223044 35 336 3.0 8.0 0.00 0.00 0.00 65 1018.3
20240224223004 35 354 5.0 9.0 0.00 0.00 0.00 66 1018.0
20240224222529 35 335 4.0 9.0 0.00 0.00 0.00 66 1018.3
20240224222031 35 1 6.0 9.0 0.00 0.00 0.00 65 1018.3
20240224222004 35 347 5.0 10.0 0.00 0.00 0.00 66 1018.0
20240224221536 35 345 3.0 9.0 0.00 0.00 0.00 66 1018.1
20240224221505 35 348 5.0 10.0 0.00 0.00 0.00 66 1017.8
20240224221029 35 6 5.0 9.0 0.00 0.00 0.00 66 1018.0
20240224221005 35 352 4.0 10.0 0.00 0.00 0.00 66 1017.8
20240224220528 35 6 3.0 7.0 0.00 0.00 0.00 65 1018.0
20240224220038 35 4 4.0 8.0 0.00 0.00 0.00 66 1018.0
20240224220005 35 341 4.0 9.0 0.00 0.00 0.00 67 1017.6
20240224215529 35 346 3.0 8.0 0.00 0.00 0.00 66 1017.9
20240224215504 35 347 5.0 9.0 0.00 0.00 0.00 66 1017.6
20240224215028 35 17 4.0 11.0 0.00 0.00 0.00 66 1017.7
20240224215004 35 348 5.0 9.0 0.00 0.00 0.00 67 1017.5
20240224214530 35 359 3.0 11.0 0.00 0.00 0.00 65 1017.7
20240224214505 36 355 5.0 11.0 0.00 0.00 0.00 66 1017.3
20240224214028 35 352 7.0 11.0 0.00 0.00 0.00 66 1017.6
20240224214004 35 6 4.0 11.0 0.00 0.00 0.00 66 1017.3
20240224213528 35 359 3.0 10.0 0.00 0.00 0.00 65 1017.6
20240224213035 35 2 4.0 10.0 0.00 0.00 0.00 65 1017.6
20240224213004 36 3 4.0 10.0 0.00 0.00 0.00 66 1017.2
20240224212531 36 11 3.0 10.0 0.00 0.00 0.00 65 1017.6
20240224212034 36 321 3.0 15.0 0.00 0.00 0.00 64 1017.6
20240224211548 35 337 7.0 15.0 0.00 0.00 0.00 65 1017.5
20240224211504 36 348 5.0 16.0 0.00 0.00 0.00 65 1017.2
20240224211030 35 316 4.0 12.0 0.00 0.00 0.00 64 1017.5
20240224211003 36 348 6.0 13.0 0.00 0.00 0.00 64 1017.1